{"data":{"norad_id":55294,"epoch":"2026-09-20T22:00:03.000096Z","epoch_age_seconds":56736,"freshness":"FRESH","line1":"1 55294U 23010AB  26263.91670139  .00122968  00000+0  83841-2 0  9999","line2":"2 55294  69.9984 272.0361 0004118 313.3522  47.8314 15.05535546  5760","mean_motion":15.05535546,"eccentricity":0.0004118,"inclination_deg":69.9984,"raan_deg":272.0361,"arg_perigee_deg":313.3522,"mean_anomaly_deg":47.8314,"bstar":0.0083841,"rev_number":576,"period_min":95.647027652444,"perigee_km":547.00930248588,"apogee_km":552.7152026703,"semimajor_km":6927.9992525781,"source":"CELESTRAK","updated_at":"2026-09-21T09:00:33.170440Z"}}